N531RC KFAY-KACY

Flight info

Callsign N531RC
Flight time 1h 24m
Altitude 37000
Route MTYS5 RDU DCT GVE DCT EMI DCT MXE DCT DQO DCT OOD V184 VCN DCT
Aircraft P180/L-L/C

Departure

Time 2026-04-21 01:23
Airport Fayetteville Regional Airport - Grannis Field (KFAY)

Arrival

Time 2026-04-21 02:47
Airport Atlantic City International Airport (KACY)
Time Latitude Longitude Altitude Speed Heading
2026-04-21 01:04 34.99260 -78.88345 180 ft 0 kts 317°
2026-04-21 01:10 34.99271 -78.88348 180 ft 3 kts
2026-04-21 01:10 34.99283 -78.88310 179 ft 7 kts 73°
2026-04-21 01:11 34.99327 -78.88269 178 ft 10 kts 31°
2026-04-21 01:11 34.99355 -78.88228 178 ft 7 kts 102°
2026-04-21 01:11 34.99369 -78.88171 177 ft 9 kts 32°
2026-04-21 01:11 34.99434 -78.88123 176 ft 13 kts 31°
2026-04-21 01:12 34.99516 -78.88064 175 ft 14 kts 31°
2026-04-21 01:12 34.99611 -78.87994 173 ft 17 kts 32°
2026-04-21 01:12 34.99721 -78.87913 171 ft 20 kts 31°
2026-04-21 01:12 34.99842 -78.87824 169 ft 21 kts 32°
2026-04-21 01:13 34.99973 -78.87728 167 ft 23 kts 31°
2026-04-21 01:13 35.00091 -78.87640 166 ft 16 kts 31°
2026-04-21 01:13 35.00190 -78.87568 164 ft 18 kts 31°
2026-04-21 01:13 35.00265 -78.87511 163 ft 8 kts 36°
2026-04-21 01:14 35.00281 -78.87466 163 ft 0 kts 96°
2026-04-21 01:21 35.00275 -78.87449 163 ft 8 kts 118°
2026-04-21 01:21 35.00235 -78.87396 163 ft 9 kts 172°
2026-04-21 01:21 35.00207 -78.87403 163 ft 0 kts 208°
2026-04-21 01:22 35.00002 -78.87557 166 ft 65 kts 212°
2026-04-21 01:22 34.99474 -78.87942 176 ft 108 kts 211°
2026-04-21 01:22 34.98751 -78.88477 329 ft 121 kts 212°
2026-04-21 01:23 34.98061 -78.89003 728 ft 117 kts 213°
2026-04-21 01:23 34.97286 -78.89512 961 ft 138 kts 209°
2026-04-21 01:23 34.96349 -78.90084 1128 ft 162 kts 209°
2026-04-21 01:23 34.95288 -78.90721 1609 ft 166 kts 209°
2026-04-21 01:24 34.94219 -78.91349 2123 ft 168 kts 209°
2026-04-21 01:24 34.93159 -78.91962 2633 ft 169 kts 209°
2026-04-21 01:24 34.92087 -78.92572 3125 ft 171 kts 208°
2026-04-21 01:24 34.91009 -78.93179 3617 ft 172 kts 209°
2026-04-21 01:25 34.89954 -78.93855 4099 ft 169 kts 224°
2026-04-21 01:25 34.89086 -78.94815 4575 ft 171 kts 221°
2026-04-21 01:25 34.88065 -78.95588 5088 ft 174 kts 213°
2026-04-21 01:25 34.86980 -78.96300 5593 ft 175 kts 213°
2026-04-21 01:26 34.85907 -78.97012 6076 ft 176 kts 213°
2026-04-21 01:26 34.84832 -78.97734 6554 ft 178 kts 214°
2026-04-21 01:26 34.83810 -78.98562 7003 ft 172 kts 237°
2026-04-21 01:26 34.83372 -78.99856 7470 ft 164 kts 264°
2026-04-21 01:27 34.83402 -79.01208 7930 ft 158 kts 287°
2026-04-21 01:27 34.83874 -79.02396 8394 ft 157 kts 307°
2026-04-21 01:27 34.84707 -79.03246 8847 ft 159 kts 328°
2026-04-21 01:27 34.85787 -79.03607 9282 ft 166 kts 350°
2026-04-21 01:28 34.86958 -79.03407 9702 ft 173 kts
2026-04-21 01:28 34.88139 -79.03095 10137 ft 174 kts
2026-04-21 01:28 34.89325 -79.02804 10564 ft 174 kts
2026-04-21 01:28 34.90531 -79.02504 10987 ft 174 kts
2026-04-21 01:29 34.91718 -79.02212 11402 ft 174 kts
2026-04-21 01:29 34.92908 -79.01905 11806 ft 175 kts
2026-04-21 01:29 34.94103 -79.01583 12206 ft 176 kts
2026-04-21 01:29 34.95299 -79.01259 12619 ft 176 kts
2026-04-21 01:30 34.96500 -79.00935 13082 ft 176 kts
2026-04-21 01:30 34.97710 -79.00609 13529 ft 176 kts
2026-04-21 01:30 34.98540 -79.00385 13831 ft 177 kts
2026-04-21 01:30 34.99738 -79.00061 14236 ft 177 kts
2026-04-21 01:31 35.00938 -78.99737 14602 ft 177 kts
2026-04-21 01:31 35.02161 -78.99407 14967 ft 178 kts
2026-04-21 01:31 35.03385 -78.99076 15322 ft 178 kts
2026-04-21 01:31 35.04618 -78.98742 15670 ft 179 kts
2026-04-21 01:32 35.05855 -78.98408 16005 ft 180 kts
2026-04-21 01:32 35.07078 -78.98077 16360 ft 180 kts
2026-04-21 01:32 35.08318 -78.97741 16703 ft 180 kts
2026-04-21 01:32 35.09547 -78.97408 17036 ft 181 kts
2026-04-21 01:33 35.10778 -78.97074 17361 ft 181 kts
2026-04-21 01:33 35.12016 -78.96739 17692 ft 182 kts
2026-04-21 01:33 35.13256 -78.96403 18038 ft 182 kts
2026-04-21 01:33 35.14496 -78.96067 18364 ft 183 kts
2026-04-21 01:34 35.15743 -78.95729 18657 ft 184 kts
2026-04-21 01:34 35.16991 -78.95390 18951 ft 183 kts
2026-04-21 01:34 35.18238 -78.95051 19232 ft 183 kts
2026-04-21 01:34 35.19484 -78.94714 19514 ft 184 kts
2026-04-21 01:35 35.20720 -78.94378 19798 ft 184 kts
2026-04-21 01:35 35.21989 -78.94033 20077 ft 184 kts
2026-04-21 01:35 35.23221 -78.93698 20348 ft 184 kts
2026-04-21 01:35 35.24474 -78.93358 20623 ft 184 kts
2026-04-21 01:36 35.25730 -78.93017 20923 ft 185 kts
2026-04-21 01:36 35.26987 -78.92675 21198 ft 185 kts
2026-04-21 01:36 35.28246 -78.92333 21481 ft 185 kts
2026-04-21 01:36 35.29505 -78.91990 21774 ft 185 kts
2026-04-21 01:37 35.30764 -78.91647 22060 ft 185 kts
2026-04-21 01:37 35.32022 -78.91305 22362 ft 185 kts
2026-04-21 01:37 35.33282 -78.90961 22660 ft 186 kts 360°
2026-04-21 01:37 35.34545 -78.90617 22954 ft 186 kts 360°
2026-04-21 01:38 35.35811 -78.90273 23278 ft 186 kts 360°
2026-04-21 01:38 35.37075 -78.89928 23638 ft 186 kts 359°
2026-04-21 01:38 35.38341 -78.89582 23966 ft 186 kts 359°
2026-04-21 01:38 35.39608 -78.89237 24252 ft 187 kts 359°
2026-04-21 01:39 35.40878 -78.88890 24543 ft 187 kts 359°
2026-04-21 01:39 35.42153 -78.88542 24831 ft 188 kts 359°
2026-04-21 01:39 35.43428 -78.88194 25130 ft 188 kts 359°
2026-04-21 01:39 35.44705 -78.87845 25429 ft 189 kts 359°
2026-04-21 01:40 35.45987 -78.87495 25733 ft 189 kts 359°
2026-04-21 01:40 35.47273 -78.87144 26035 ft 189 kts 359°
2026-04-21 01:40 35.48564 -78.86791 26333 ft 190 kts 359°
2026-04-21 01:40 35.49840 -78.86442 26634 ft 191 kts 359°
2026-04-21 01:41 35.51135 -78.86088 26948 ft 191 kts 359°
2026-04-21 01:41 35.52437 -78.85731 27252 ft 192 kts 359°
2026-04-21 01:41 35.53742 -78.85374 27566 ft 192 kts 359°
2026-04-21 01:41 35.55051 -78.85016 27876 ft 193 kts 359°
2026-04-21 01:42 35.56366 -78.84659 28186 ft 194 kts 359°
2026-04-21 01:42 35.57683 -78.84295 28503 ft 195 kts 359°
2026-04-21 01:42 35.59005 -78.83931 28820 ft 195 kts 359°
2026-04-21 01:42 35.60333 -78.83566 29147 ft 196 kts 359°
2026-04-21 01:43 35.61664 -78.83202 29478 ft 196 kts 359°
2026-04-21 01:43 35.62979 -78.82841 29802 ft 197 kts 358°
2026-04-21 01:43 35.64325 -78.82671 30139 ft 190 kts 351°
2026-04-21 01:43 35.65644 -78.82471 30435 ft 197 kts 358°
2026-04-21 01:44 35.66997 -78.82046 30698 ft 204 kts
2026-04-21 01:44 35.68350 -78.81397 30969 ft 212 kts
2026-04-21 01:44 35.69671 -78.80523 31254 ft 220 kts 15°
2026-04-21 01:44 35.70938 -78.79413 31538 ft 228 kts 22°
2026-04-21 01:45 35.72126 -78.78059 31811 ft 238 kts 29°
2026-04-21 01:45 35.73205 -78.76454 32086 ft 248 kts 37°
2026-04-21 01:45 35.74106 -78.74677 32346 ft 257 kts 43°
2026-04-21 01:45 35.74979 -78.72764 32605 ft 257 kts 43°
2026-04-21 01:46 35.75870 -78.70864 32867 ft 256 kts 42°
2026-04-21 01:46 35.76767 -78.68967 33130 ft 257 kts 42°
2026-04-21 01:46 35.77659 -78.67069 33426 ft 257 kts 43°
2026-04-21 01:46 35.78563 -78.65131 33726 ft 257 kts 43°
2026-04-21 01:47 35.79467 -78.63197 34033 ft 257 kts 43°
2026-04-21 01:47 35.80379 -78.61248 34314 ft 257 kts 43°
2026-04-21 01:47 35.81284 -78.59313 34525 ft 259 kts 43°
2026-04-21 01:47 35.82178 -78.57403 34737 ft 260 kts 43°
2026-04-21 01:48 35.83083 -78.55463 34926 ft 262 kts 44°
2026-04-21 01:48 35.83992 -78.53514 35119 ft 263 kts 44°
2026-04-21 01:48 35.84916 -78.51540 35211 ft 269 kts 44°
2026-04-21 01:48 35.85867 -78.49515 35263 ft 277 kts 45°
2026-04-21 01:49 35.86840 -78.47423 35288 ft 285 kts 45°
2026-04-21 01:49 35.87840 -78.45269 35305 ft 293 kts 46°
2026-04-21 01:49 35.89922 -78.40792 35307 ft 308 kts 46°
2026-04-21 01:50 35.92099 -78.36101 35316 ft 321 kts 47°
2026-04-21 01:50 35.94378 -78.31186 35314 ft 333 kts 47°
2026-04-21 01:51 35.96312 -78.27007 35311 ft 342 kts 48°
2026-04-21 01:51 35.98703 -78.21836 35313 ft 351 kts 48°
2026-04-21 01:52 36.02410 -78.13802 35305 ft 363 kts 49°
2026-04-21 01:53 36.04971 -78.08241 35301 ft 369 kts 49°
2026-04-21 01:53 36.07583 -78.02560 35285 ft 374 kts 49°
2026-04-21 01:54 36.10203 -77.96855 35287 ft 379 kts 49°
2026-04-21 01:54 36.12807 -77.91171 35286 ft 382 kts 49°
2026-04-21 01:55 36.15506 -77.85272 35308 ft 384 kts 49°
2026-04-21 01:55 36.17663 -77.80547 35310 ft 386 kts 49°
2026-04-21 01:56 36.20839 -77.73585 35324 ft 388 kts 49°
2026-04-21 01:56 36.23497 -77.67744 35330 ft 389 kts 50°
2026-04-21 01:57 36.25780 -77.62719 35329 ft 389 kts 49°
2026-04-21 01:57 36.28478 -77.56771 35332 ft 390 kts 50°
2026-04-21 01:58 36.31157 -77.50856 35331 ft 391 kts 50°
2026-04-21 01:58 36.33816 -77.44973 35325 ft 391 kts 50°
2026-04-21 01:59 36.36475 -77.39084 35319 ft 392 kts 50°
2026-04-21 01:59 36.39154 -77.33135 35333 ft 397 kts 50°
2026-04-21 02:00 36.41854 -77.27125 35334 ft 400 kts 50°
2026-04-21 02:00 36.44573 -77.21070 35332 ft 403 kts 50°
2026-04-21 02:01 36.47301 -77.14977 35323 ft 404 kts 50°
2026-04-21 02:01 36.50034 -77.08868 35329 ft 405 kts 50°
2026-04-21 02:02 36.52773 -77.02731 35334 ft 406 kts 50°
2026-04-21 02:02 36.55515 -76.96574 35350 ft 407 kts 50°
2026-04-21 02:03 36.58257 -76.90408 35355 ft 407 kts 50°
2026-04-21 02:03 36.60998 -76.84233 35355 ft 408 kts 50°
2026-04-21 02:04 36.63742 -76.78041 35356 ft 408 kts 51°
2026-04-21 02:04 36.66480 -76.71848 35358 ft 408 kts 51°
2026-04-21 02:05 36.69215 -76.65651 35365 ft 408 kts 51°
2026-04-21 02:05 36.71948 -76.59449 35357 ft 409 kts 51°
2026-04-21 02:06 36.74685 -76.53221 35356 ft 409 kts 51°
2026-04-21 02:06 36.77414 -76.47004 35362 ft 409 kts 51°
2026-04-21 02:07 36.80127 -76.40813 35360 ft 409 kts 51°
2026-04-21 02:07 36.82855 -76.34570 35355 ft 409 kts 52°
2026-04-21 02:08 36.85581 -76.28328 35341 ft 409 kts 51°
2026-04-21 02:08 36.88824 -76.22673 35340 ft 393 kts 38°
2026-04-21 02:09 36.92831 -76.18223 35341 ft 379 kts 26°
2026-04-21 02:09 36.97332 -76.15021 35342 ft 369 kts 16°
2026-04-21 02:10 37.01944 -76.12191 35341 ft 370 kts 17°
2026-04-21 02:10 37.06559 -76.09330 35342 ft 370 kts 17°
2026-04-21 02:11 37.11175 -76.06486 35344 ft 370 kts 17°
2026-04-21 02:11 37.15806 -76.03619 35349 ft 371 kts 17°
2026-04-21 02:12 37.20443 -76.00748 35352 ft 372 kts 17°
2026-04-21 02:12 37.25048 -75.97886 35358 ft 372 kts 17°
2026-04-21 02:13 37.29729 -75.94980 35355 ft 373 kts 18°
2026-04-21 02:13 37.34404 -75.92069 35358 ft 373 kts 18°
2026-04-21 02:14 37.39145 -75.89116 35354 ft 373 kts 18°
2026-04-21 02:14 37.43174 -75.86602 35352 ft 374 kts 18°
2026-04-21 02:15 37.47895 -75.83652 35354 ft 374 kts 18°
2026-04-21 02:15 37.52597 -75.80711 35348 ft 375 kts 18°
2026-04-21 02:16 37.57344 -75.77737 35349 ft 375 kts 18°
2026-04-21 02:16 37.62148 -75.74723 35357 ft 375 kts 18°
2026-04-21 02:17 37.66615 -75.71916 35354 ft 375 kts 18°
2026-04-21 02:17 37.71449 -75.68875 35360 ft 376 kts 18°
2026-04-21 02:18 37.75463 -75.66345 35354 ft 376 kts 18°
2026-04-21 02:18 37.80307 -75.63289 35353 ft 376 kts 18°
2026-04-21 02:19 37.85179 -75.60211 35366 ft 376 kts 18°
2026-04-21 02:19 37.87620 -75.58667 35174 ft 376 kts 18°
2026-04-21 02:19 37.89999 -75.57159 34694 ft 377 kts 18°
2026-04-21 02:19 37.92307 -75.55696 34175 ft 378 kts 18°
2026-04-21 02:20 37.94440 -75.54345 33704 ft 376 kts 18°
2026-04-21 02:20 37.96780 -75.52859 33205 ft 374 kts 18°
2026-04-21 02:20 37.99102 -75.51384 32713 ft 372 kts 18°
2026-04-21 02:20 38.01439 -75.49898 32211 ft 370 kts 17°
2026-04-21 02:21 38.03723 -75.48448 31726 ft 366 kts 17°
2026-04-21 02:21 38.06027 -75.46986 31227 ft 360 kts 17°
2026-04-21 02:21 38.08246 -75.45573 30756 ft 354 kts 17°
2026-04-21 02:21 38.09730 -75.44627 30439 ft 349 kts 16°
2026-04-21 02:22 38.11882 -75.43255 29932 ft 342 kts 16°
2026-04-21 02:22 38.14012 -75.41900 29477 ft 338 kts 16°
2026-04-21 02:22 38.16101 -75.40570 29031 ft 336 kts 16°
2026-04-21 02:22 38.18200 -75.39225 28588 ft 333 kts 16°
2026-04-21 02:23 38.20286 -75.37887 28144 ft 329 kts 16°
2026-04-21 02:23 38.22319 -75.36589 27717 ft 325 kts 16°
2026-04-21 02:23 38.24343 -75.35296 27285 ft 322 kts 16°
2026-04-21 02:23 38.26348 -75.34012 26859 ft 319 kts 16°
2026-04-21 02:24 38.28361 -75.32722 26427 ft 315 kts 16°
2026-04-21 02:24 38.30295 -75.31482 26013 ft 312 kts 16°
2026-04-21 02:24 38.32240 -75.30236 25601 ft 309 kts 16°
2026-04-21 02:24 38.34184 -75.28989 25186 ft 306 kts 16°
2026-04-21 02:25 38.36110 -75.27752 24775 ft 304 kts 16°
2026-04-21 02:25 38.37828 -75.26650 24410 ft 302 kts 16°
2026-04-21 02:25 38.39728 -75.25428 24008 ft 299 kts 16°
2026-04-21 02:25 38.41557 -75.24250 23580 ft 296 kts 16°
2026-04-21 02:26 38.43421 -75.23052 23178 ft 293 kts 16°
2026-04-21 02:26 38.45207 -75.21904 22798 ft 292 kts 16°
2026-04-21 02:26 38.47063 -75.20707 22400 ft 291 kts 17°
2026-04-21 02:26 38.48835 -75.19565 22022 ft 290 kts 17°
2026-04-21 02:27 38.50683 -75.18374 21632 ft 290 kts 17°
2026-04-21 02:27 38.52495 -75.17205 21247 ft 289 kts 17°
2026-04-21 02:27 38.54308 -75.16033 20867 ft 289 kts 17°
2026-04-21 02:27 38.56065 -75.14898 20493 ft 289 kts 17°
2026-04-21 02:28 38.57865 -75.13735 20114 ft 289 kts 17°
2026-04-21 02:28 38.59557 -75.12640 19768 ft 289 kts 17°
2026-04-21 02:28 38.61370 -75.11469 19268 ft 293 kts 18°
2026-04-21 02:28 38.63086 -75.10362 18774 ft 298 kts 18°
2026-04-21 02:29 38.65007 -75.09116 18163 ft 301 kts 18°
2026-04-21 02:29 38.66828 -75.07884 17576 ft 307 kts 23°
2026-04-21 02:29 38.68593 -75.06131 16960 ft 316 kts 32°
2026-04-21 02:29 38.70267 -75.04357 16393 ft 318 kts 32°
2026-04-21 02:30 38.71998 -75.02500 15826 ft 315 kts 33°
2026-04-21 02:30 38.73603 -75.00764 15478 ft 306 kts 33°
2026-04-21 02:30 38.75257 -74.98981 15134 ft 299 kts 33°
2026-04-21 02:30 38.76851 -74.97275 14797 ft 295 kts 33°
2026-04-21 02:31 38.78382 -74.95632 14460 ft 292 kts 34°
2026-04-21 02:31 38.79877 -74.94022 14116 ft 291 kts 34°
2026-04-21 02:31 38.81420 -74.92357 13731 ft 289 kts 34°
2026-04-21 02:31 38.82971 -74.90689 13353 ft 292 kts 34°
2026-04-21 02:32 38.84556 -74.88987 12953 ft 295 kts 34°
2026-04-21 02:32 38.86108 -74.87311 12565 ft 296 kts 35°
2026-04-21 02:32 38.87600 -74.85697 12194 ft 297 kts 35°
2026-04-21 02:32 38.89183 -74.83985 11800 ft 298 kts 35°
2026-04-21 02:33 38.90770 -74.82270 11414 ft 298 kts 35°
2026-04-21 02:33 38.92355 -74.80555 11027 ft 297 kts 36°
2026-04-21 02:33 38.93232 -74.79605 10810 ft 295 kts 36°
2026-04-21 02:33 38.94783 -74.77922 10461 ft 286 kts 36°
2026-04-21 02:34 38.96291 -74.76284 9986 ft 281 kts 36°
2026-04-21 02:34 38.97792 -74.74660 9420 ft 280 kts 36°
2026-04-21 02:34 38.99241 -74.73087 9065 ft 272 kts 36°
2026-04-21 02:34 39.00682 -74.71522 8743 ft 265 kts 36°
2026-04-21 02:35 39.02079 -74.70006 8430 ft 259 kts 36°
2026-04-21 02:35 39.03430 -74.68540 8121 ft 255 kts 37°
2026-04-21 02:35 39.04781 -74.67072 7801 ft 252 kts 37°
2026-04-21 02:35 39.06129 -74.65606 7478 ft 250 kts 37°
2026-04-21 02:36 39.07450 -74.64167 7156 ft 248 kts 37°
2026-04-21 02:36 39.08756 -74.62746 6834 ft 244 kts 37°
2026-04-21 02:36 39.10041 -74.61348 6531 ft 239 kts 37°
2026-04-21 02:36 39.11271 -74.60005 6239 ft 231 kts 37°
2026-04-21 02:37 39.12478 -74.58687 5969 ft 224 kts 36°
2026-04-21 02:37 39.13658 -74.57403 5696 ft 220 kts 36°
2026-04-21 02:37 39.14819 -74.56135 5421 ft 217 kts 36°
2026-04-21 02:37 39.16031 -74.55014 5147 ft 211 kts 21°
2026-04-21 02:38 39.17437 -74.54734 4871 ft 204 kts 353°
2026-04-21 02:38 39.18742 -74.55337 4614 ft 200 kts 326°
2026-04-21 02:38 39.19682 -74.56672 4352 ft 200 kts 302°
2026-04-21 02:38 39.20322 -74.58257 4093 ft 199 kts 299°
2026-04-21 02:39 39.20958 -74.59834 3834 ft 198 kts 300°
2026-04-21 02:39 39.21606 -74.61399 3574 ft 198 kts 301°
2026-04-21 02:39 39.22165 -74.62745 3343 ft 197 kts 301°
2026-04-21 02:39 39.22805 -74.64295 3084 ft 197 kts 301°
2026-04-21 02:40 39.23460 -74.65884 2818 ft 196 kts 301°
2026-04-21 02:40 39.24110 -74.67459 2554 ft 195 kts 302°
2026-04-21 02:40 39.24608 -74.68663 2354 ft 195 kts 303°
2026-04-21 02:40 39.25899 -74.70182 2037 ft 186 kts 340°
2026-04-21 02:41 39.26680 -74.70425 2019 ft 178 kts 354°
2026-04-21 02:41 39.27957 -74.70157 1998 ft 170 kts 21°
2026-04-21 02:41 39.29248 -74.69268 1987 ft 159 kts 25°
2026-04-21 02:41 39.30192 -74.68622 1994 ft 148 kts 24°
2026-04-21 02:42 39.30826 -74.68194 1995 ft 149 kts 24°
2026-04-21 02:42 39.31854 -74.67501 1983 ft 152 kts 24°
2026-04-21 02:42 39.32752 -74.66887 1989 ft 146 kts 24°
2026-04-21 02:42 39.33687 -74.66248 1994 ft 142 kts 24°
2026-04-21 02:43 39.34480 -74.65701 1993 ft 123 kts 24°
2026-04-21 02:43 39.35212 -74.65201 1980 ft 115 kts 23°
2026-04-21 02:43 39.35922 -74.64718 1907 ft 113 kts 24°
2026-04-21 02:43 39.36621 -74.64242 1808 ft 114 kts 23°
2026-04-21 02:44 39.37329 -74.63759 1716 ft 115 kts 24°
2026-04-21 02:44 39.38042 -74.63272 1640 ft 112 kts 24°
2026-04-21 02:44 39.38751 -74.62788 1504 ft 115 kts 24°
2026-04-21 02:44 39.39470 -74.62297 1347 ft 117 kts 24°
2026-04-21 02:45 39.40040 -74.61905 1211 ft 111 kts 24°
2026-04-21 02:45 39.40447 -74.61626 1124 ft 108 kts 23°
2026-04-21 02:45 39.41109 -74.61174 964 ft 110 kts 24°
2026-04-21 02:45 39.41707 -74.60765 828 ft 113 kts 25°
2026-04-21 02:46 39.42341 -74.60333 699 ft 117 kts 25°
2026-04-21 02:46 39.42736 -74.60063 613 ft 119 kts 26°
2026-04-21 02:46 39.43255 -74.59706 494 ft 114 kts 27°
2026-04-21 02:46 39.44077 -74.59140 300 ft 107 kts 26°
2026-04-21 02:47 39.44534 -74.58828 194 ft 101 kts 27°
2026-04-21 02:47 39.45201 -74.58370 71 ft 90 kts 26°
2026-04-21 02:47 39.45583 -74.58113 67 ft 20 kts 27°
2026-04-21 02:47 39.45696 -74.58035 70 ft 20 kts 32°
2026-04-21 02:48 39.45770 -74.57968 66 ft 13 kts 47°
2026-04-21 02:48 39.45753 -74.57845 70 ft 12 kts 119°
2026-04-21 02:48 39.45750 -74.57837 65 ft 0 kts 118°
2026-04-21 02:49 39.45750 -74.57836 70 ft 0 kts 118°
2026-04-21 02:49 39.45749 -74.57834 70 ft 1 kts 116°
2026-04-21 02:50 39.45742 -74.57810 70 ft 5 kts 109°
2026-04-21 02:50 39.45717 -74.57761 70 ft 8 kts 127°
2026-04-21 02:50 39.45685 -74.57679 70 ft 12 kts 116°
2026-04-21 02:50 39.45641 -74.57572 70 ft 15 kts 118°
2026-04-21 02:51 39.45587 -74.57442 66 ft 18 kts 118°
2026-04-21 02:51 39.45527 -74.57296 70 ft 12 kts 118°
2026-04-21 02:51 39.45452 -74.57259 67 ft 13 kts 224°
2026-04-21 02:51 39.45390 -74.57373 69 ft 16 kts 235°
2026-04-21 02:52 39.45308 -74.57423 69 ft 13 kts 149°
2026-04-21 02:52 39.45228 -74.57462 67 ft 15 kts 234°
2026-04-21 02:52 39.45168 -74.57559 66 ft 12 kts 213°
2026-04-21 02:52 39.45115 -74.57540 68 ft 13 kts 132°
2026-04-21 02:53 39.45101 -74.57446 68 ft 10 kts 108°
2026-04-21 02:53 39.45029 -74.57435 63 ft 11 kts 176°
2026-04-21 02:53 39.44972 -74.57421 68 ft 4 kts 198°
2026-04-21 02:53 39.44963 -74.57431 65 ft 0 kts 230°